TimeEST,TemperatureF,Dew PointF,Humidity,Sea Level PressureIn,VisibilityMPH,Wind Direction,Wind SpeedMPH,Gust SpeedMPH,PrecipitationIn,Events,Conditions,WindDirDegrees,DateUTC
12:53 AM,32.0,27.0,82,30.38,10.0,Calm,Calm,-,N/A,,Clear,0,2013-01-08 05:53:00
1:53 AM,30.9,27.0,85,30.37,10.0,Calm,Calm,-,N/A,,Clear,0,2013-01-08 06:53:00
2:53 AM,32.0,27.0,82,30.36,10.0,Calm,Calm,-,N/A,,Clear,0,2013-01-08 07:53:00
3:53 AM,32.0,27.0,82,30.36,10.0,Calm,Calm,-,N/A,,Partly Cloudy,0,2013-01-08 08:53:00
4:53 AM,35.1,28.0,76,30.36,10.0,NE,4.6,-,N/A,,Clear,50,2013-01-08 09:53:00
5:53 AM,32.0,27.0,82,30.38,10.0,Calm,Calm,-,N/A,,Scattered Clouds,0,2013-01-08 10:53:00
6:53 AM,33.1,27.0,78,30.38,10.0,North,4.6,-,N/A,,Partly Cloudy,10,2013-01-08 11:53:00
7:53 AM,35.1,28.0,76,30.39,10.0,NNE,6.9,-,N/A,,Scattered Clouds,20,2013-01-08 12:53:00
8:53 AM,36.0,30.0,79,30.42,10.0,North,4.6,-,N/A,,Scattered Clouds,10,2013-01-08 13:53:00
9:48 AM,39.2,30.2,70,30.42,10.0,NNE,5.8,-,N/A,,Mostly Cloudy,30,2013-01-08 14:48:00
9:53 AM,39.9,30.9,70,30.43,10.0,NNE,5.8,-,N/A,,Mostly Cloudy,30,2013-01-08 14:53:00
10:05 AM,42.8,32.0,66,30.42,10.0,NE,4.6,-,N/A,,Mostly Cloudy,40,2013-01-08 15:05:00
10:53 AM,44.1,33.1,65,30.44,10.0,NE,3.5,-,N/A,,Overcast,40,2013-01-08 15:53:00
11:06 AM,44.6,33.8,66,30.42,10.0,NE,5.8,-,N/A,,Overcast,40,2013-01-08 16:06:00
11:53 AM,46.0,33.1,61,30.43,10.0,Calm,Calm,-,N/A,,Overcast,0,2013-01-08 16:53:00
12:07 PM,46.4,33.8,62,30.41,10.0,Calm,Calm,-,N/A,,Overcast,0,2013-01-08 17:07:00
12:53 PM,48.0,33.1,56,30.40,10.0,Calm,Calm,-,N/A,,Overcast,0,2013-01-08 17:53:00
1:53 PM,50.0,34.0,54,30.37,10.0,North,3.5,-,N/A,,Overcast,360,2013-01-08 18:53:00
2:53 PM,51.1,35.1,54,30.35,10.0,Calm,Calm,-,N/A,,Overcast,0,2013-01-08 19:53:00
3:53 PM,51.1,36.0,56,30.35,10.0,NNE,3.5,-,N/A,,Mostly Cloudy,30,2013-01-08 20:53:00
4:53 PM,51.1,37.0,59,30.35,10.0,North,3.5,-,N/A,,Overcast,10,2013-01-08 21:53:00
5:53 PM,50.0,37.9,63,30.36,10.0,Calm,Calm,-,N/A,,Overcast,0,2013-01-08 22:53:00
6:53 PM,48.9,39.0,69,30.36,10.0,East,5.8,-,N/A,,Overcast,90,2013-01-08 23:53:00
7:53 PM,48.0,39.0,71,30.38,10.0,Calm,Calm,-,N/A,,Overcast,0,2013-01-09 00:53:00
8:00 PM,48.2,37.4,66,30.37,10.0,Calm,Calm,-,N/A,,Overcast,0,2013-01-09 01:00:00
8:30 PM,46.4,37.4,71,30.37,10.0,Calm,Calm,-,N/A,,Mostly Cloudy,0,2013-01-09 01:30:00
8:53 PM,48.0,39.0,71,30.38,10.0,Calm,Calm,-,N/A,,Overcast,0,2013-01-09 01:53:00
9:53 PM,48.9,37.9,66,30.38,10.0,Calm,Calm,-,N/A,,Overcast,0,2013-01-09 02:53:00
10:07 PM,48.2,37.4,66,30.38,10.0,Calm,Calm,-,N/A,,Overcast,0,2013-01-09 03:07:00
10:19 PM,48.2,37.4,66,30.38,10.0,Calm,Calm,-,N/A,,Overcast,0,2013-01-09 03:19:00
10:53 PM,48.0,39.0,71,30.38,10.0,NNE,3.5,-,N/A,,Overcast,30,2013-01-09 03:53:00
11:53 PM,48.0,39.0,71,30.37,10.0,North,3.5,-,N/A,,Overcast,10,2013-01-09 04:53:00